CALSPHERE 1 1 00900U 64063C 10210.39219401 +.00000214 +00000-0 +22999-3 0 01499 2 00900 090.1536 333.7613 0030502 094.7361 265.7276 13.70631717275242 CALSPHERE 2 1 00902U 64063E 10210.80493956 +.00000075 +00000-0 +10000-3 0 03864 2 00902 090.1548 336.5604 0018650 139.5917 220.6622 13.52478513072460 LCS 1 1 01361U 65034C 10210.60003301 +.00000009 +00000-0 +10000-3 0 02419 2 01361 032.1430 271.7743 0012650 010.5417 349.5344 09.89278913635708 TEMPSAT 1 1 01512U 65065E 10210.66796843 +.00000059 +00000-0 +10000-3 0 04188 2 01512 089.8021 292.5805 0069632 338.4481 021.3726 13.33267848186929 CALSPHERE 4(A) 1 01520U 65065H 10210.69470520 +.00000059 +00000-0 +10000-3 0 05878 2 01520 090.1757 090.5251 0068505 259.5767 099.7643 13.35345965188634 OPS 5712 (P/L 160) 1 02826U 67053A 10210.75670194 +.00000457 +00000-0 +16854-3 0 00783 2 02826 069.9350 310.8437 0008418 304.5983 055.4364 14.38647183225901 OPS 5712 (P/L 153) 1 02874U 67053H 10210.71518024 -.00000043 +00000-0 +70865-5 0 04831 2 02874 069.9741 299.7514 0007478 179.5153 180.5941 13.95946549197418 SURCAL 150B 1 02909U 67053J 10210.73490441 +.00000548 +00000-0 +16740-3 0 02628 2 02909 069.9541 113.9901 0002023 118.9292 241.2040 14.46946845231919 RIGIDSPHERE 2 (LCS 4) 1 05398U 71067E 10210.87077950 +.00000168 +00000-0 +55912-4 0 09196 2 05398 087.6316 137.7866 0063042 277.6900 081.7144 14.31274225042879 OPS 8180 (RADCAT) 1 06212U 72076A 10210.78901337 +.00004369 +00000-0 +14816-3 0 00687 2 06212 098.5558 286.4044 0003717 054.2209 305.9394 15.31216940185190